[[{"header":{"parameterUnit":"m.s-1","parameterCategory":1,"la1":30.2991,"la2":30.254,"lo1":-89.0895,"lo2":-89.0444,"dy":0.0017,"dx":0.0017,"nx":28,"ny":28,"refTime":"2023-10-15T03:00:00:Z","depth":0,"parameterNumber":2,"parameterNumberName":"U-component_of_WINDS"},"data":[0,0,0,0,0,0,0,0,0,0,0,0,0,0,0,0,0,0,0,0,0,0,0,0,0,0,0,0,0,0,0,0,0,0,0,0,0,0,0,0,0,0,0,0,0,0,0,0,0,0,0,0,0,0,0,0,0,0,3.0809,3.0809,0,3.0814,3.0814,3.0814,3.0788,3.0787,3.0786,3.0786,3.0791,3.0792,3.0793,0,0,0,0,0,0,0,0,0,0,0,0,0,3.0777,3.0777,3.0809,3.0809,3.0809,3.0814,3.0814,3.0814,3.0788,3.0787,3.0786,3.0785,3.0791,3.0792,3.0793,0,0,0,0,0,0,0,0,0,0,0,0,0,3.0787,3.0778,3.0809,3.0796,3.0795,3.0814,3.0814,3.0815,3.0788,3.0787,3.0786,3.0785,3.0791,3.0792,3.0793,3.0824,0,0,3.0797,3.0798,0,0,0,0,0,0,0,0,3.0787,3.0788,3.0798,3.0797,3.0796,3.0799,3.0805,3.0818,3.0789,3.0791,3.0786,3.0784,3.0795,3.0796,3.0799,3.0824,3.0825,3.0797,3.0798,3.0799,3.0799,0,0,0,0,0,0,0,3.0786,3.0788,3.0811,3.0798,3.0797,3.0791,3.0791,3.0807,3.0799,3.0791,3.0789,3.079,3.0794,3.0798,3.0799,3.0825,3.0797,3.0798,3.0799,3.08,3.0878,3.0879,0,0,0,0,0,0,3.0787,3.0788,3.0811,3.0811,3.0789,3.0793,3.0793,3.0799,3.0799,3.0798,3.0791,3.0789,3.0796,3.0798,3.0799,3.0837,3.0799,3.08,3.0801,3.0877,3.0878,3.088,0,0,0,0,0,0,3.0786,3.0789,3.0811,3.0799,3.0801,3.0794,3.0802,3.08,3.0804,3.0799,3.0798,3.0796,3.0796,3.0797,3.0819,3.0836,3.08,3.0802,3.0875,3.0877,3.0879,3.0911,0,0,0,0,0,0,3.0785,3.0789,3.08,3.0799,3.0802,3.0829,3.0803,3.0801,3.0806,3.0804,3.0804,3.0803,3.0795,3.0817,3.082,3.0838,3.0803,3.0873,3.0876,3.0878,3.0908,3.0914,3.0919,0,0,0,0,0,3.0784,3.0809,3.0801,3.0804,3.0816,3.083,3.0832,3.0822,3.0808,3.082,3.0817,3.0803,3.0834,3.0819,3.0822,3.0841,3.0872,3.0875,3.0878,3.0906,3.0913,3.0919,0,0,0,0,0,0,3.0811,3.0808,3.08,3.0824,3.0828,3.0826,3.084,3.0829,3.0837,3.0834,3.0822,3.0822,3.0846,3.0845,3.0829,3.0872,3.0851,3.0855,3.0871,3.0877,3.0882,3.0882,3.0804,0,0,0,0,0,3.082,3.0832,3.0829,3.0851,3.0853,3.0847,3.0853,3.0845,3.0848,3.085,3.0848,3.0852,3.0863,3.087,3.088,3.0909,3.0909,3.0923,3.0928,3.0932,3.0936,3.0952,3.0959,3.0889,3.0889,3.0889,0,0,3.0838,3.0838,3.0846,3.0856,3.0858,3.0872,3.0848,3.0862,3.0873,3.0852,3.0872,3.0871,3.0875,3.0901,3.0912,3.0901,3.0955,3.0936,3.094,3.094,3.0956,3.0963,3.0969,3.0891,3.0891,3.089,0,0,3.0878,3.0879,3.0898,3.0901,3.0905,3.0901,3.0905,3.0906,3.0905,3.0925,3.091,3.0922,3.0941,3.0944,3.0949,3.0993,3.0981,3.0997,3.1023,3.104,3.1045,3.105,3.1066,3.1072,3.1,3.1,3.1,0,3.09,3.0919,3.0909,3.0926,3.0931,3.0914,3.0934,3.0937,3.0944,3.0948,3.0936,3.0961,3.0962,3.0989,3.1,3.1004,3.101,3.0996,3.1045,3.105,3.1054,3.107,3.1076,3.1002,3.1002,3.1001,3.1001,0,3.0947,3.0961,3.0976,3.0983,3.0991,3.1009,3.1002,3.1011,3.1004,3.1001,3.1023,3.1024,3.1034,3.104,3.1033,3.1067,3.106,3.1047,3.1025,3.1063,3.1078,3.1083,3.1005,3.1004,3.1003,3.1003,0,0,3.1002,3.1006,3.1011,3.1015,3.1019,3.103,3.1048,3.1059,3.1067,3.1073,3.1088,3.1105,3.1094,3.1099,3.1092,3.1106,3.1143,3.1091,3.1091,3.1101,3.1182,3.1192,3.1199,3.1135,3.1136,3.1137,3.1182,0,3.1042,3.1072,3.1065,3.1096,3.1109,3.1094,3.111,3.1115,3.1114,3.1125,3.1124,3.1137,3.112,3.1123,3.1137,3.1136,3.1159,3.1132,3.115,3.1151,3.1149,3.1207,3.1217,3.1259,3.1187,3.1188,3.1189,0,3.1092,3.11,3.1132,3.1136,3.1141,3.1156,3.1166,3.1177,3.1183,3.1181,3.1188,3.1179,3.1198,3.1177,3.1203,3.1185,3.1192,3.1193,3.1195,3.1196,3.1172,3.1209,3.1272,3.1278,3.1198,3.1197,3.1197,0,3.113,3.1149,3.1172,3.1175,3.118,3.1191,3.1193,3.1197,3.1205,3.1214,3.1219,3.123,3.1237,3.1246,3.1241,3.1226,3.1269,3.1247,3.1268,3.1268,3.1277,3.1277,3.1342,3.1282,3.1282,3.1282,3.1281,0,3.1175,3.1195,3.1189,3.1203,3.1226,3.1218,3.1241,3.1242,3.1246,3.126,3.1248,3.1262,3.1254,3.1267,3.1264,3.1287,3.129,3.1289,3.1288,3.129,3.129,3.1294,3.1291,3.1283,3.1283,3.1283,3.1282,0,3.122,3.1217,3.1241,3.1244,3.1245,3.1262,3.1265,3.1278,3.1277,3.1295,3.1299,3.1296,3.1312,3.1308,3.1324,3.1321,3.1351,3.1346,3.1349,3.1348,3.137,3.1368,3.144,3.1449,3.1383,3.1384,3.1384,0,3.1249,3.1265,3.127,3.1279,3.1283,3.1297,3.1305,3.1298,3.1307,3.1316,3.1329,3.1343,3.1354,3.138,3.138,3.1393,3.1388,3.1413,3.139,3.1393,3.1389,3.1388,3.139,3.1417,3.1418,3.1418,3.1419,0,3.1301,3.13,3.1311,3.1324,3.1334,3.1343,3.1351,3.1359,3.1354,3.1365,3.138,3.1389,3.1407,3.1422,3.1434,3.1437,3.1428,3.1426,3.1432,3.1434,3.1436,3.1436,3.1362,3.1424,3.1424,3.1423,3.1423,3.1423,3.134,3.1354,3.136,3.1374,3.138,3.1389,3.1402,3.1403,3.1416,3.143,3.1425,3.1444,3.1451,3.1467,3.1472,3.1486,3.1477,3.1485,3.1487,3.1489,3.1493,3.1434,3.1489,3.1488,3.1488,3.1488,3.1488,0,3.1392,3.1396,3.1409,3.1421,3.1433,3.1424,3.1433,3.1443,3.146,3.1467,3.1479,3.1498,3.1513,3.1515,3.153,3.1541,3.1537,3.1545,3.1544,3.1545,3.15,3.1493,3.1548,3.1548,3.1548,3.1548,3.1548,3.1548,3.142,3.1443,3.1443,3.1469,3.1473,3.1491,3.1498,3.1506,3.1512,3.1534,3.1546,3.1548,3.1554,3.1569,3.1583,3.1583,3.1589,3.1599,3.1598,3.1554,3.1548,3.1543,3.1537,3.16,3.16,3.1642,3.1643,3.1643]},{"header":{"parameterUnit":"m.s-1","parameterCategory":1,"la1":30.2991,"la2":30.254,"lo1":-89.0895,"lo2":-89.0444,"dy":0.0017,"dx":0.0017,"nx":28,"ny":28,"refTime":"2023-10-15T03:00:00:Z","depth":0,"parameterNumber":3,"parameterNumberName":"V-component_of_WINDS"},"data":[0,0,0,0,0,0,0,0,0,0,0,0,0,0,0,0,0,0,0,0,0,0,0,0,0,0,0,0,0,0,0,0,0,0,0,0,0,0,0,0,0,0,0,0,0,0,0,0,0,0,0,0,0,0,0,0,0,0,-4.932,-4.9321,0,-4.9354,-4.9354,-4.9355,-4.9354,-4.9354,-4.9353,-4.9353,-4.9385,-4.9386,-4.9387,0,0,0,0,0,0,0,0,0,0,0,0,0,-4.9255,-4.9256,-4.932,-4.9321,-4.9321,-4.9354,-4.9354,-4.9355,-4.9354,-4.9354,-4.9353,-4.9353,-4.9384,-4.9386,-4.9387,0,0,0,0,0,0,0,0,0,0,0,0,0,-4.9285,-4.9256,-4.932,-4.9325,-4.9326,-4.9354,-4.9354,-4.9355,-4.9354,-4.9354,-4.9353,-4.9352,-4.9384,-4.9386,-4.9388,-4.9413,0,0,-4.9393,-4.9394,0,0,0,0,0,0,0,0,-4.9284,-4.9288,-4.9324,-4.9325,-4.9325,-4.9349,-4.9343,-4.9374,-4.9355,-4.9343,-4.9353,-4.9352,-4.9373,-4.9376,-4.9384,-4.9414,-4.9415,-4.9393,-4.9395,-4.9395,-4.9396,0,0,0,0,0,0,0,-4.9281,-4.9286,-4.9333,-4.9324,-4.9325,-4.9325,-4.9329,-4.9349,-4.9362,-4.9344,-4.9344,-4.9348,-4.9374,-4.9382,-4.9384,-4.9416,-4.9393,-4.9395,-4.9396,-4.9397,-4.9471,-4.9472,0,0,0,0,0,0,-4.9279,-4.9284,-4.9332,-4.9335,-4.9303,-4.9327,-4.9331,-4.9342,-4.9361,-4.9364,-4.9349,-4.9348,-4.9379,-4.9382,-4.9386,-4.9418,-4.9395,-4.9397,-4.9398,-4.947,-4.9471,-4.9472,0,0,0,0,0,0,-4.9277,-4.9283,-4.9331,-4.931,-4.9316,-4.9329,-4.9341,-4.9343,-4.9352,-4.9365,-4.9367,-4.9355,-4.9379,-4.9383,-4.9407,-4.9419,-4.9398,-4.94,-4.9469,-4.947,-4.9472,-4.9481,0,0,0,0,0,0,-4.9275,-4.9282,-4.9292,-4.931,-4.9317,-4.9352,-4.9342,-4.9344,-4.9355,-4.9355,-4.9371,-4.9373,-4.9378,-4.9404,-4.9408,-4.9421,-4.9401,-4.9468,-4.947,-4.9471,-4.9479,-4.9482,-4.9485,0,0,0,0,0,-4.9273,-4.9292,-4.9292,-4.9298,-4.9329,-4.9352,-4.9356,-4.9362,-4.9356,-4.9366,-4.9375,-4.9373,-4.9417,-4.9406,-4.9411,-4.9425,-4.9467,-4.9469,-4.9471,-4.9478,-4.9482,-4.9485,0,0,0,0,0,0,-4.9273,-4.9294,-4.9295,-4.932,-4.9335,-4.9352,-4.9364,-4.9365,-4.9381,-4.938,-4.9386,-4.939,-4.9414,-4.9421,-4.9409,-4.9451,-4.9441,-4.9444,-4.9445,-4.9448,-4.9451,-4.9448,-4.9403,0,0,0,0,0,-4.9277,-4.9294,-4.9311,-4.9332,-4.934,-4.9351,-4.9361,-4.9365,-4.938,-4.9386,-4.9396,-4.941,-4.9427,-4.9438,-4.9454,-4.9481,-4.9485,-4.9493,-4.9495,-4.9497,-4.95,-4.9516,-4.952,-4.9478,-4.9478,-4.9478,0,0,-4.9283,-4.9297,-4.9307,-4.9333,-4.9344,-4.9363,-4.9356,-4.9375,-4.9388,-4.9388,-4.9412,-4.942,-4.9436,-4.9462,-4.9474,-4.9469,-4.9513,-4.95,-4.9501,-4.9503,-4.9518,-4.9522,-4.9526,-4.9479,-4.9479,-4.9479,0,0,-4.9304,-4.9316,-4.9336,-4.9348,-4.9367,-4.9375,-4.938,-4.9398,-4.9404,-4.9428,-4.9429,-4.9445,-4.9474,-4.9486,-4.9496,-4.9525,-4.9524,-4.953,-4.9543,-4.9559,-4.9563,-4.9566,-4.9577,-4.9581,-4.9533,-4.9533,-4.9533,0,-4.9309,-4.9337,-4.9345,-4.9366,-4.9377,-4.938,-4.94,-4.9412,-4.9434,-4.9442,-4.9437,-4.9475,-4.9486,-4.9516,-4.9523,-4.9531,-4.9537,-4.9528,-4.9562,-4.9565,-4.9568,-4.9579,-4.9583,-4.9534,-4.9533,-4.9533,-4.9533,0,-4.9344,-4.9363,-4.9377,-4.9401,-4.9414,-4.9434,-4.9445,-4.9458,-4.9462,-4.947,-4.9496,-4.9509,-4.953,-4.9537,-4.9539,-4.9567,-4.9564,-4.956,-4.9551,-4.9572,-4.9583,-4.9587,-4.9534,-4.9534,-4.9534,-4.9534,0,0,-4.9364,-4.9394,-4.9399,-4.9411,-4.9433,-4.9448,-4.9469,-4.949,-4.9502,-4.9517,-4.9535,-4.9561,-4.9559,-4.957,-4.9575,-4.9588,-4.9613,-4.9583,-4.9584,-4.9589,-4.9646,-4.9649,-4.9653,-4.9613,-4.9613,-4.9614,-4.9645,0,-4.9388,-4.9426,-4.9435,-4.9467,-4.9487,-4.9491,-4.9509,-4.9525,-4.9534,-4.9551,-4.9561,-4.958,-4.9575,-4.9582,-4.9596,-4.9607,-4.9624,-4.9605,-4.9629,-4.963,-4.9625,-4.9659,-4.9661,-4.969,-4.9649,-4.9649,-4.965,0,-4.942,-4.944,-4.9474,-4.9497,-4.9505,-4.9521,-4.9543,-4.9559,-4.9578,-4.9584,-4.9598,-4.9601,-4.9624,-4.9614,-4.9645,-4.9631,-4.9642,-4.9649,-4.9651,-4.9653,-4.9641,-4.9662,-4.9699,-4.9703,-4.9656,-4.9656,-4.9655,0,-4.9433,-4.9467,-4.9493,-4.9503,-4.9529,-4.9541,-4.9552,-4.957,-4.9583,-4.9602,-4.961,-4.9631,-4.9642,-4.9658,-4.9667,-4.9659,-4.9698,-4.9688,-4.9704,-4.9704,-4.9711,-4.9711,-4.975,-4.9718,-4.9718,-4.9718,-4.9718,0,-4.9459,-4.948,-4.95,-4.9515,-4.954,-4.9551,-4.9575,-4.9586,-4.9603,-4.9621,-4.9625,-4.9642,-4.9654,-4.9672,-4.968,-4.9705,-4.971,-4.9716,-4.9717,-4.9715,-4.9715,-4.9722,-4.9721,-4.9719,-4.9719,-4.9719,-4.9719,0,-4.9476,-4.949,-4.9519,-4.9542,-4.9549,-4.9566,-4.9586,-4.9602,-4.9612,-4.9636,-4.9642,-4.9658,-4.968,-4.9692,-4.9719,-4.9724,-4.9753,-4.9753,-4.9747,-4.9748,-4.9763,-4.9762,-4.9809,-4.9816,-4.9779,-4.9779,-4.978,0,-4.9492,-4.9509,-4.9535,-4.9549,-4.9561,-4.9582,-4.9596,-4.9608,-4.9623,-4.9647,-4.966,-4.9683,-4.9702,-4.9738,-4.9752,-4.9773,-4.9774,-4.979,-4.9777,-4.9776,-4.9775,-4.9774,-4.9777,-4.9791,-4.9792,-4.9792,-4.9792,0,-4.9518,-4.9525,-4.9546,-4.957,-4.9588,-4.9606,-4.9625,-4.9636,-4.9651,-4.9667,-4.9691,-4.9706,-4.9736,-4.9759,-4.9782,-4.9793,-4.9796,-4.9796,-4.9801,-4.9799,-4.9795,-4.9799,-4.9754,-4.9795,-4.9795,-4.9794,-4.9794,-4.9794,-4.9536,-4.9552,-4.9574,-4.9598,-4.9614,-4.9632,-4.9649,-4.9663,-4.9683,-4.9709,-4.9715,-4.9741,-4.9761,-4.9792,-4.9805,-4.9825,-4.9822,-4.9828,-4.983,-4.9832,-4.9833,-4.9792,-4.9829,-4.9829,-4.9829,-4.9829,-4.9829,0,-4.9563,-4.9579,-4.9601,-4.9628,-4.9647,-4.9649,-4.9671,-4.9686,-4.971,-4.9729,-4.9748,-4.9777,-4.98,-4.9817,-4.9841,-4.9854,-4.9856,-4.986,-4.9859,-4.9862,-4.9834,-4.9828,-4.9858,-4.9858,-4.9858,-4.9858,-4.9858,-4.9858,-4.958,-4.9608,-4.9618,-4.9655,-4.967,-4.9696,-4.9709,-4.9726,-4.9741,-4.9774,-4.9794,-4.9805,-4.9824,-4.9849,-4.9871,-4.9876,-4.9884,-4.9888,-4.9893,-4.9867,-4.9863,-4.986,-4.9855,-4.989,-4.989,-4.9919,-4.9919,-4.9919]}]]